FREGAT DEB, 46252

Orbit data source: Space-Track

FREGAT DEB, 46252 is space debris in LEO originally from a launch on Mon, 18 Jul 2011 UTC launched from the Tyuratam Missile And Space Complex (TTMTR). Debris objects in space refer to the collection of defunct objects orbiting the Earth. Examples of debris include non-operational satellites, rocket bodies, and fragments generated from explosions, collisions, or faulty payload assembly.

Loading next visibility...
Identifier
46252, 2011-037KN
Orbit
LEO
Country
Flag of CISCIS
Related business
Manufacturer
Lavochkin
Mission
Spacecraft
Bus & Motor
Unknown
Mass
Unknown
Launch date (UTC)
2011-07-18 (15 years ago)
Launch vehicle
Unknown
Launch site
Tyuratam Missile And Space Complex (TTMTR)
Object type
Payload
Rocket body
Debris
Shape & HBR
Unknown shape, 0.1 m
Radar Cross Section
Medium (>0.1 m² and <1 m²)

Expand to show TLE details & history
Last TLE update: 2 days ago

TLE from 2 days ago
0 FREGAT DEB
1 46252U 11037KN  26254.04424647  .00015588  00000-0  77593-1 0  9990
2 46252  50.7479 278.3621 1684190 291.2128  51.7246 10.56313276222753
Epoch: 2026-09-11T01:03Z
TLE epoch observation values (Epoch: 2026-09-11T01:03:42.895Z)
Latitude
-0°
Longitude
-87.63988°
Altitude
1,659.776 km
Speed
7.334 km/s
True Right ascension
18h 33m 26s
True Declination
0° 00' 00"
Sunlit
Object was in daylight at epoch
Visualization orbit readout
Latitude
Unknown
Longitude
Unknown
Altitude
Unknown
Speed
Unknown
Apparent Right ascension
Unknown
Apparent Declination
Unknown
Sunlit
N/A
Visualization observer readout
Local Sidereal Time
08:02:45
Azimuth
Unknown
Elevation
Unknown
Doppler factor
Unknown
Orbital elements
Apogee altitude
3,874.407 km
Perigee altitude
918.749 km
Semi-major axis
8,774.715 km
Eccentricity
0.16842
Inclination
50.7479°
RAAN
278.3621°
Arg. of periapsis
291.2128°
True anomaly
68.86832°
Mean anomaly
51.7246°
Eccentric anomaly
60.08897°
Mean motion
2.64055 °/min
Orbital period
136.34 mins
BSTAR
0.077593
Loading maneuver chart data...
Computing Atmospheric mass density...
Loading historical data...
Loading historical data...
Loading historical data...
Loading historical data...
Loading historical data...
Loading historical data...
Loading historical data...

Documentation

Showing up to 5 results
|